TimeCDT,TemperatureF,Dew PointF,Humidity,Sea Level PressureIn,VisibilityMPH,Wind Direction,Wind SpeedMPH,Gust SpeedMPH,PrecipitationIn,Events,Conditions,WindDirDegrees,DateUTC
12:56 AM,36.0,26.1,67,30.32,10.0,Calm,Calm,-,N/A,,Clear,0,2012-10-05 05:56:00
1:56 AM,30.9,24.1,76,30.31,10.0,WNW,4.6,-,N/A,,Clear,300,2012-10-05 06:56:00
2:56 AM,34.0,26.1,73,30.30,10.0,WNW,5.8,-,N/A,,Clear,300,2012-10-05 07:56:00
3:56 AM,35.1,26.1,70,30.30,10.0,NW,11.5,-,N/A,,Clear,310,2012-10-05 08:56:00
4:56 AM,32.0,25.0,75,30.30,10.0,NW,10.4,-,N/A,,Clear,310,2012-10-05 09:56:00
5:56 AM,30.9,25.0,79,30.31,10.0,WNW,4.6,-,N/A,,Clear,290,2012-10-05 10:56:00
6:56 AM,30.0,24.1,79,30.32,10.0,WNW,6.9,-,N/A,,Clear,300,2012-10-05 11:56:00
7:56 AM,30.0,24.1,79,30.32,10.0,NW,10.4,-,N/A,,Clear,310,2012-10-05 12:56:00
8:56 AM,33.1,25.0,72,30.32,10.0,NW,11.5,-,N/A,,Clear,320,2012-10-05 13:56:00
9:56 AM,37.9,23.0,55,30.32,10.0,NNW,11.5,-,N/A,,Clear,330,2012-10-05 14:56:00
10:56 AM,42.1,19.9,41,30.32,10.0,NW,24.2,31.1,N/A,,Clear,320,2012-10-05 15:56:00
11:56 AM,44.1,21.0,40,30.32,10.0,WNW,21.9,28.8,N/A,,Clear,300,2012-10-05 16:56:00
12:56 PM,46.0,21.0,37,30.32,10.0,WNW,17.3,26.5,N/A,,Clear,300,2012-10-05 17:56:00
1:56 PM,46.9,21.0,36,30.30,10.0,WNW,17.3,31.1,N/A,,Clear,300,2012-10-05 18:56:00
2:56 PM,48.9,21.0,33,30.28,10.0,NW,17.3,29.9,N/A,,Clear,310,2012-10-05 19:56:00
3:56 PM,48.9,21.0,33,30.26,10.0,WNW,18.4,27.6,N/A,,Clear,300,2012-10-05 20:56:00
4:56 PM,48.0,19.9,33,30.26,10.0,NW,23.0,-,N/A,,Clear,320,2012-10-05 21:56:00
5:56 PM,46.9,18.0,32,30.27,10.0,NW,19.6,-,N/A,,Clear,320,2012-10-05 22:56:00
6:56 PM,42.1,18.0,38,30.29,10.0,NNW,16.1,-,N/A,,Clear,330,2012-10-05 23:56:00
7:56 PM,37.9,18.0,45,30.31,10.0,NW,9.2,-,N/A,,Clear,320,2012-10-06 00:56:00
8:56 PM,36.0,18.0,48,30.33,10.0,NW,10.4,-,N/A,,Clear,320,2012-10-06 01:56:00
9:56 PM,34.0,18.0,52,30.33,10.0,NW,9.2,-,N/A,,Clear,320,2012-10-06 02:56:00
10:56 PM,32.0,18.0,56,30.33,10.0,NW,9.2,-,N/A,,Clear,320,2012-10-06 03:56:00
11:56 PM,28.9,19.0,67,30.34,10.0,NW,6.9,-,N/A,,Clear,310,2012-10-06 04:56:00